FW3819 Weather Reports


time (UTC)temp
F
wind
direction
speed
knots
gust
knots
rain 1hr
in
rain 24hr
in
rain mn
in
humidity
%
barometer
mb
20260504214029 79 156 2.6 13.0 0.00 0.00 0.00 29 1010.6
20260504213827 80 176 2.6 12.2 0.00 0.00 0.00 28 1010.8
20260504213031 80 138 3.5 12.2 0.00 0.00 0.00 28 1010.8
20260504212528 80 187 3.5 10.4 0.00 0.00 0.00 28 1010.8
20260504212317 80 160 3.5 13.9 0.00 0.00 0.00 28 1010.8
20260504211515 80 156 2.6 13.9 0.00 0.00 0.00 27 1010.9
20260504211009 79 73 3.5 13.0 0.00 0.00 0.00 29 1010.7
20260504210503 79 227 2.6 13.0 0.00 0.00 0.00 28 1010.9
20260504210043 79 172 1.7 7.0 0.00 0.00 0.00 29 1010.9
20260504205003 80 54 2.6 10.4 0.00 0.00 0.00 28 1010.8
20260504204503 80 194 2.6 10.4 0.00 0.00 0.00 28 1010.8
20260504204002 80 152 2.6 9.6 0.00 0.00 0.00 27 1010.9
20260504203503 80 179 1.7 9.6 0.00 0.00 0.00 28 1011.0
20260504203308 80 175 1.7 7.0 0.00 0.00 0.00 28 1011.0
20260504202502 80 175 1.7 7.0 0.00 0.00 0.00 27 1011.1
20260504202002 79 153 2.6 7.8 0.00 0.00 0.00 28 1011.1
20260504201501 79 143 3.5 10.4 0.00 0.00 0.00 28 1011.1
20260504201002 78 223 4.3 13.9 0.00 0.00 0.00 28 1011.2
20260504200502 79 217 3.5 13.9 0.00 0.00 0.00 28 1011.4
20260504200003 79 152 3.5 7.8 0.00 0.00 0.00 28 1011.2
20260504195754 80 205 1.7 7.8 0.00 0.00 0.00 27 1011.2
20260504195002 80 192 1.7 7.0 0.00 0.00 0.00 27 1011.2
20260504194501 80 105 2.6 13.9 0.00 0.00 0.00 28 1011.3
20260504194313 79 166 3.5 13.9 0.00 0.00 0.00 28 1011.4
20260504193457 79 149 4.3 12.2 0.00 0.00 0.00 27 1011.5
20260504192949 78 139 4.3 13.9 0.00 0.00 0.00 28 1011.5
20260504192447 79 187 4.3 13.9 0.00 0.00 0.00 28 1011.6
20260504191947 80 155 2.6 9.6 0.00 0.00 0.00 27 1011.8
20260504191447 80 129 2.6 13.9 0.00 0.00 0.00 29 1011.9
20260504190948 79 234 3.5 13.9 0.00 0.00 0.00 28 1012.0
20260504190449 79 246 3.5 12.2 0.00 0.00 0.00 27 1012.0
20260504185949 79 201 3.5 12.2 0.00 0.00 0.00 28 1012.2
20260504185447 78 242 3.5 10.4 0.00 0.00 0.00 29 1012.2
20260504184948 78 186 3.5 12.2 0.00 0.00 0.00 29 1012.4
20260504184450 78 217 3.5 13.9 0.00 0.00 0.00 29 1012.5
20260504183947 76 181 4.3 20.9 0.00 0.00 0.00 32 1012.5
20260504183448 77 190 3.5 20.9 0.00 0.00 0.00 29 1012.6
20260504182947 78 242 3.5 13.9 0.00 0.00 0.00 29 1012.7
20260504182448 77 222 3.5 13.9 0.00 0.00 0.00 29 1012.8
20260504182253 77 241 3.5 13.9 0.00 0.00 0.00 29 1012.8
20260504181447 77 196 2.6 9.6 0.00 0.00 0.00 28 1012.9
20260504180947 77 257 1.7 7.0 0.00 0.00 0.00 30 1012.9
20260504180447 78 143 1.7 7.0 0.00 0.00 0.00 28 1013.0
20260504175947 78 187 1.7 7.0 0.00 0.00 0.00 30 1013.1
20260504175449 76 210 1.7 12.2 0.00 0.00 0.00 29 1013.2
20260504174946 76 167 3.5 12.2 0.00 0.00 0.00 31 1013.3
20260504174447 75 234 3.5 10.4 0.00 0.00 0.00 31 1013.3
20260504173948 75 269 2.6 10.4 0.00 0.00 0.00 32 1013.3
20260504173543 75 201 2.6 7.8 0.00 0.00 0.00 32 1013.5
20260504173523 76 129 2.6 6.1 0.00 0.00 0.00 30 1013.5
20260504172730 74 210 2.6 9.6 0.00 0.00 0.00 34 1013.6
20260504171939 74 215 3.5 9.6 0.00 0.00 0.00 31 1013.7
20260504171441 74 150 3.5 9.6 0.00 0.00 0.00 31 1013.7
20260504170942 74 223 3.5 9.6 0.00 0.00 0.00 32 1013.8
20260504170440 74 234 2.6 7.8 0.00 0.00 0.00 30 1014.0
20260504160437 71 272 3.5 10.4 0.00 0.00 0.00 32 1014.7
20260504150931 68 125 3.5 10.4 0.00 0.00 0.00 33 1015.2
20260504150429 68 205 3.5 10.4 0.00 0.00 0.00 34 1015.3
20260504140930 62 82 0.9 4.3 0.00 0.00 0.00 45 1015.3
20260504140722 62 188 0.9 4.3 0.00 0.00 0.00 43 1015.4
20260504130430 56 82 0.9 4.3 0.00 0.00 0.00 52 1015.9
20260504130222 56 166 1.7 4.3 0.00 0.00 0.00 52 1016.0
20260504100403 46 82 0.9 2.6 0.00 0.00 0.00 83 1016.2
20260504081902 46 265 0.9 2.6 0.00 0.00 0.00 82 1016.6
20260504081403 46 248 0.9 2.6 0.00 0.00 0.00 82 1016.4
20260504081157 45 129 0.9 2.6 0.00 0.00 0.00 82 1016.4
20260504080401 45 73 0.9 2.6 0.00 0.00 0.00 83 1016.6
20260504050650 42 54 0.9 0.9 0.00 0.00 0.00 81 1017.2
20260504045857 42 54 0.9 0.9 0.00 0.00 0.00 81 1017.1
20260504045356 42 54 0.9 0.9 0.00 0.00 0.00 81 1017.1
20260504044858 42 69 0.9 0.9 0.00 0.00 0.00 81 1017.1
20260504044356 42 54 0.9 0.9 0.00 0.00 0.00 81 1017.1
20260504044151 42 326 0.9 0.9 0.00 0.00 0.00 81 1017.2
20260504043357 42 73 0.9 0.9 0.00 0.00 0.00 80 1017.1
20260504042858 42 54 0.9 2.6 0.00 0.00 0.00 80 1017.0
20260504042357 42 279 0.9 2.6 0.00 0.00 0.00 80 1017.1
20260504042152 43 54 0.9 0.9 0.00 0.00 0.00 79 1017.0
20260504041654 43 82 0.9 0.9 0.00 0.00 0.00 79 1017.0
20260504040857 43 54 0.9 2.6 0.00 0.00 0.00 79 1017.0
20260504040356 43 54 0.9 2.6 0.00 0.00 0.00 79 1017.0
20260504035852 43 11 0.9 0.9 0.00 0.00 0.00 78 1017.0
20260504035649 43 54 0.0 0.9 0.00 0.00 0.00 78 1017.1
20260504034851 44 54 0.9 2.6 0.00 0.00 0.00 78 1017.2
20260504034353 44 54 0.9 2.6 0.00 0.00 0.00 78 1017.1
20260504033850 44 54 0.9 0.9 0.00 0.00 0.00 77 1017.3
20260504033351 44 73 0.9 2.6 0.00 0.00 0.00 76 1017.1
20260504032853 44 89 0.9 2.6 0.00 0.00 0.00 76 1017.0
20260504032351 44 82 0.9 0.9 0.00 0.00 0.00 76 1017.0
20260504031849 45 28 0.9 0.9 0.00 0.00 0.00 75 1016.8
20260504031347 45 110 0.9 2.6 0.00 0.00 0.00 75 1016.9
20260504030847 45 117 0.9 2.6 0.00 0.00 0.00 74 1016.9
20260504030345 45 117 0.9 0.9 0.00 0.00 0.00 74 1016.9
20260504025845 45 54 0.9 2.6 0.00 0.00 0.00 73 1016.8
20260504025343 45 54 0.9 2.6 0.00 0.00 0.00 72 1016.9
20260504024844 46 89 0.9 0.9 0.00 0.00 0.00 72 1016.8
20260504024343 46 82 0.0 0.9 0.00 0.00 0.00 71 1016.7
20260504023844 46 73 0.9 0.9 0.00 0.00 0.00 70 1016.7
20260504023338 46 100 0.9 2.6 0.00 0.00 0.00 69 1016.8
20260504023129 46 54 0.9 2.6 0.00 0.00 0.00 68 1016.7
20260504022331 46 89 0.0 0.9 0.00 0.00 0.00 67 1016.7
20260504022123 47 73 0.0 0.9 0.00 0.00 0.00 67 1016.6
20260504021621 47 54 0.0 0.9 0.00 0.00 0.00 67 1016.6
20260504020830 47 54 0.0 2.6 0.00 0.00 0.00 66 1016.6
20260504020333 47 54 0.9 2.6 0.00 0.00 0.00 66 1016.6
20260504020123 48 143 0.9 2.6 0.00 0.00 0.00 64 1016.6
20260504015623 48 54 0.9 2.6 0.00 0.00 0.00 63 1016.5
20260504014830 48 326 0.9 2.6 0.00 0.00 0.00 63 1016.5
20260504014330 48 73 0.9 2.6 0.00 0.00 0.00 64 1016.4
20260504014126 49 345 0.9 2.6 0.00 0.00 0.00 62 1016.3
20260504013632 49 134 0.9 2.6 0.00 0.00 0.00 61 1016.3
20260504012830 49 117 0.9 2.6 0.00 0.00 0.00 60 1016.3
20260504012332 50 117 0.9 2.6 0.00 0.00 0.00 59 1016.2
20260504011830 50 100 0.9 2.6 0.00 0.00 0.00 58 1016.1
20260504011331 50 100 0.9 2.6 0.00 0.00 0.00 57 1016.1
20260504010830 51 28 0.9 2.6 0.00 0.00 0.00 58 1016.1
20260504010331 51 28 0.9 2.6 0.00 0.00 0.00 58 1016.0
20260504005825 51 100 0.9 2.6 0.00 0.00 0.00 55 1016.1
20260504005613 52 11 0.9 2.6 0.00 0.00 0.00 53 1016.2
20260504004813 52 82 0.9 2.6 0.00 0.00 0.00 53 1016.1
20260504004308 53 100 0.9 2.6 0.00 0.00 0.00 56 1015.9
20260504003804 53 54 0.9 2.6 0.00 0.00 0.00 50 1015.9
20260504003304 53 116 0.9 0.9 0.00 0.00 0.00 48 1015.9
20260504002804 54 82 0.9 2.6 0.00 0.00 0.00 46 1015.7
20260504002304 55 89 0.9 2.6 0.00 0.00 0.00 49 1015.8
20260504001804 55 54 0.9 2.6 0.00 0.00 0.00 48 1015.8
20260504001306 56 110 0.9 2.6 0.00 0.00 0.00 47 1015.6
20260504000805 56 82 0.0 2.6 0.00 0.00 0.00 46 1015.6
20260504000305 57 234 0.0 2.6 0.00 0.00 0.00 44 1015.5
20260503235804 58 54 0.0 2.6 0.00 0.00 0.00 42 1015.5
20260503235304 58 11 0.9 2.6 0.00 0.00 0.00 41 1015.5
20260503234804 59 11 0.9 2.6 0.00 0.00 0.00 39 1015.5
20260503234302 60 54 0.0 4.3 0.00 0.00 0.00 38 1015.4
20260503233802 60 82 0.9 4.3 0.00 0.00 0.00 34 1015.4
20260503233302 61 260 0.9 4.3 0.00 0.00 0.00 32 1015.4
20260503232802 61 143 1.7 7.0 0.00 0.00 0.00 31 1015.4
20260503232301 61 143 1.7 7.0 0.00 0.00 0.00 30 1015.3
20260503231802 62 222 1.7 6.1 0.00 0.00 0.00 30 1015.2
20260503231301 62 143 1.7 6.1 0.00 0.00 0.00 30 1015.2
20260503231057 62 255 1.7 7.0 0.00 0.00 0.00 28 1015.1
20260503230303 62 276 1.7 7.0 0.00 0.00 0.00 27 1015.1
20260503225803 62 203 1.7 4.3 0.00 0.00 0.00 30 1015.2
20260503225304 62 171 1.7 6.1 0.00 0.00 0.00 27 1015.2
20260503224801 62 241 1.7 7.8 0.00 0.00 0.00 27 1015.2
20260503224302 62 294 2.6 12.2 0.00 0.00 0.00 27 1015.2
20260503223802 62 289 1.7 12.2 0.00 0.00 0.00 28 1015.2
20260503223302 62 353 1.7 7.0 0.00 0.00 0.00 27 1015.3
20260503222803 62 11 1.7 9.6 0.00 0.00 0.00 27 1015.3
20260503222304 62 265 1.7 9.6 0.00 0.00 0.00 27 1015.3
20260503221856 62 260 3.5 15.6 0.00 0.00 0.00 26 1015.4
20260503221837 62 21 3.5 15.6 0.00 0.00 0.00 27 1015.3
20260503220802 63 241 3.5 12.2 0.00 0.00 0.00 28 1015.4
20260503220301 63 217 2.6 12.2 0.00 0.00 0.00 26 1015.3
20260503215802 63 234 2.6 10.4 0.00 0.00 0.00 27 1015.3
20260503215300 63 117 2.6 10.4 0.00 0.00 0.00 26 1015.4
20260503215107 63 234 2.6 17.4 0.00 0.00 0.00 27 1015.3